TimeMDT,TemperatureF,Dew PointF,Humidity,Sea Level PressureIn,VisibilityMPH,Wind Direction,Wind SpeedMPH,Gust SpeedMPH,PrecipitationIn,Events,Conditions,WindDirDegrees,DateUTC
12:15 AM,64.4,50.0,59,30.45,10.0,SE,3.5,-,N/A,,Partly Cloudy,130,2013-08-26 06:15:00
12:35 AM,64.4,50.0,59,30.45,10.0,SSE,3.5,-,N/A,,Clear,150,2013-08-26 06:35:00
12:55 AM,62.6,50.0,63,30.45,10.0,SSE,3.5,-,N/A,,Clear,150,2013-08-26 06:55:00
1:15 AM,62.6,50.0,63,30.45,10.0,SE,4.6,-,N/A,,Clear,130,2013-08-26 07:15:00
1:35 AM,62.6,50.0,63,30.44,10.0,ESE,3.5,-,N/A,,Partly Cloudy,120,2013-08-26 07:35:00
1:55 AM,62.6,50.0,63,30.44,10.0,ESE,4.6,-,N/A,,Partly Cloudy,120,2013-08-26 07:55:00
2:15 AM,62.6,51.8,68,30.43,10.0,SE,5.8,-,N/A,,Mostly Cloudy,130,2013-08-26 08:15:00
2:35 AM,59.0,51.8,77,30.43,10.0,South,4.6,-,N/A,,Partly Cloudy,180,2013-08-26 08:35:00
2:55 AM,59.0,50.0,72,30.43,10.0,South,3.5,-,N/A,,Partly Cloudy,180,2013-08-26 08:55:00
3:15 AM,60.8,51.8,72,30.43,10.0,South,3.5,-,N/A,,Mostly Cloudy,190,2013-08-26 09:15:00
3:35 AM,60.8,51.8,72,30.43,10.0,SSE,3.5,-,N/A,,Mostly Cloudy,160,2013-08-26 09:35:00
3:55 AM,60.8,51.8,72,30.43,10.0,SE,4.6,-,N/A,,Scattered Clouds,140,2013-08-26 09:55:00
4:15 AM,59.0,51.8,77,30.43,10.0,Calm,Calm,-,N/A,,Clear,0,2013-08-26 10:15:00
4:35 AM,60.8,51.8,72,30.43,10.0,Calm,Calm,-,N/A,,Clear,0,2013-08-26 10:35:00
4:55 AM,62.6,51.8,68,30.43,10.0,Calm,Calm,-,N/A,,Mostly Cloudy,0,2013-08-26 10:55:00
5:15 AM,60.8,51.8,72,30.43,10.0,SSW,3.5,-,N/A,,Scattered Clouds,210,2013-08-26 11:15:00
5:35 AM,59.0,51.8,77,30.43,10.0,SSW,4.6,-,N/A,,Clear,210,2013-08-26 11:35:00
5:55 AM,57.2,51.8,82,30.43,10.0,SW,5.8,-,N/A,,Clear,220,2013-08-26 11:55:00
6:15 AM,59.0,51.8,77,30.43,10.0,South,5.8,-,N/A,,Clear,170,2013-08-26 12:15:00
6:35 AM,59.0,51.8,77,30.43,10.0,SSW,3.5,-,N/A,,Clear,200,2013-08-26 12:35:00
6:55 AM,59.0,51.8,77,30.43,10.0,Calm,Calm,-,N/A,,Clear,0,2013-08-26 12:55:00
7:15 AM,59.0,53.6,82,30.44,10.0,Calm,Calm,-,N/A,,Clear,0,2013-08-26 13:15:00
7:35 AM,59.0,53.6,82,30.44,10.0,Calm,Calm,-,N/A,,Clear,0,2013-08-26 13:35:00
7:55 AM,62.6,55.4,77,30.45,10.0,South,3.5,-,N/A,,Clear,190,2013-08-26 13:55:00
8:15 AM,62.6,53.6,72,30.45,10.0,SSE,3.5,-,N/A,,Clear,160,2013-08-26 14:15:00
8:35 AM,64.4,53.6,68,30.45,10.0,SE,5.8,-,N/A,,Clear,130,2013-08-26 14:35:00
8:55 AM,64.4,53.6,68,30.45,10.0,SE,6.9,-,N/A,,Clear,140,2013-08-26 14:55:00
9:15 AM,66.2,53.6,64,30.45,10.0,SE,9.2,-,N/A,,Clear,140,2013-08-26 15:15:00
9:35 AM,68.0,53.6,60,30.46,10.0,SSE,6.9,-,N/A,,Clear,150,2013-08-26 15:35:00
9:55 AM,68.0,53.6,60,30.46,10.0,SE,6.9,-,N/A,,Clear,140,2013-08-26 15:55:00
10:15 AM,69.8,53.6,56,30.46,10.0,SE,8.1,-,N/A,,Clear,130,2013-08-26 16:15:00
10:35 AM,71.6,53.6,53,30.46,10.0,SSE,8.1,-,N/A,,Partly Cloudy,150,2013-08-26 16:35:00
10:55 AM,71.6,53.6,53,30.46,10.0,SE,5.8,-,N/A,,Clear,130,2013-08-26 16:55:00
11:15 AM,71.6,53.6,53,30.46,10.0,ESE,16.1,19.6,N/A,,Scattered Clouds,110,2013-08-26 17:15:00
11:35 AM,73.4,53.6,50,30.46,10.0,ESE,9.2,-,N/A,,Partly Cloudy,120,2013-08-26 17:35:00
11:55 AM,73.4,53.6,50,30.45,10.0,ESE,9.2,17.3,N/A,,Partly Cloudy,120,2013-08-26 17:55:00
12:15 PM,73.4,53.6,50,30.45,10.0,SE,11.5,23.0,N/A,,Partly Cloudy,130,2013-08-26 18:15:00
12:35 PM,73.4,53.6,50,30.44,10.0,SE,10.4,20.7,N/A,,Clear,130,2013-08-26 18:35:00
12:55 PM,75.2,53.6,47,30.43,10.0,East,16.1,20.7,N/A,,Clear,100,2013-08-26 18:55:00
1:15 PM,73.4,48.2,41,30.43,10.0,SE,11.5,21.9,N/A,,Clear,140,2013-08-26 19:15:00
1:35 PM,73.4,50.0,44,30.42,10.0,SE,17.3,20.7,N/A,,Scattered Clouds,130,2013-08-26 19:35:00
1:55 PM,73.4,50.0,44,30.42,10.0,ESE,16.1,21.9,N/A,,Scattered Clouds,110,2013-08-26 19:55:00
2:15 PM,73.4,48.2,41,30.41,10.0,SE,12.7,24.2,N/A,,Scattered Clouds,130,2013-08-26 20:15:00
2:35 PM,73.4,50.0,44,30.41,10.0,SSE,13.8,20.7,N/A,,Partly Cloudy,150,2013-08-26 20:35:00
2:55 PM,75.2,48.2,38,30.40,10.0,SSE,10.4,16.1,N/A,,Partly Cloudy,150,2013-08-26 20:55:00
3:15 PM,73.4,50.0,44,30.40,10.0,ESE,13.8,19.6,N/A,,Partly Cloudy,110,2013-08-26 21:15:00
3:35 PM,75.2,50.0,41,30.39,10.0,SSE,11.5,20.7,N/A,,Partly Cloudy,160,2013-08-26 21:35:00
3:55 PM,75.2,48.2,38,30.39,10.0,East,15.0,24.2,N/A,,Clear,100,2013-08-26 21:55:00
4:15 PM,73.4,48.2,41,30.38,10.0,SE,16.1,21.9,N/A,,Clear,130,2013-08-26 22:15:00
4:35 PM,75.2,50.0,41,30.38,10.0,ESE,17.3,23.0,N/A,,Partly Cloudy,120,2013-08-26 22:35:00
4:55 PM,75.2,50.0,41,30.37,10.0,ESE,9.2,-,N/A,,Partly Cloudy,120,2013-08-26 22:55:00
5:15 PM,75.2,48.2,38,30.37,10.0,SE,11.5,19.6,N/A,,Clear,140,2013-08-26 23:15:00
5:35 PM,75.2,46.4,36,30.37,10.0,ESE,13.8,19.6,N/A,,Clear,120,2013-08-26 23:35:00
5:55 PM,75.2,48.2,38,30.36,10.0,ESE,15.0,20.7,N/A,,Clear,120,2013-08-26 23:55:00
6:15 PM,73.4,48.2,41,30.36,10.0,ESE,15.0,18.4,N/A,,Clear,120,2013-08-27 00:15:00
6:35 PM,73.4,48.2,41,30.36,10.0,ESE,11.5,17.3,N/A,,Clear,120,2013-08-27 00:35:00
6:55 PM,71.6,48.2,43,30.36,10.0,SE,9.2,-,N/A,,Clear,130,2013-08-27 00:55:00
7:15 PM,69.8,50.0,49,30.36,10.0,SE,10.4,-,N/A,,Clear,130,2013-08-27 01:15:00
7:35 PM,68.0,50.0,52,30.37,10.0,SE,10.4,-,N/A,,Partly Cloudy,140,2013-08-27 01:35:00
7:55 PM,66.2,50.0,56,30.36,10.0,SE,10.4,-,N/A,,Clear,140,2013-08-27 01:55:00
8:15 PM,66.2,50.0,56,30.36,10.0,SE,10.4,-,N/A,,Clear,140,2013-08-27 02:15:00
8:35 PM,66.2,50.0,56,30.37,10.0,SE,8.1,-,N/A,,Clear,140,2013-08-27 02:35:00
8:55 PM,64.4,50.0,59,30.37,10.0,SSE,6.9,-,N/A,,Clear,150,2013-08-27 02:55:00
9:15 PM,64.4,50.0,59,30.38,10.0,SE,8.1,-,N/A,,Clear,140,2013-08-27 03:15:00
9:35 PM,64.4,50.0,59,30.38,10.0,SSE,9.2,-,N/A,,Clear,150,2013-08-27 03:35:00
9:55 PM,62.6,50.0,63,30.39,10.0,SSE,8.1,-,N/A,,Clear,150,2013-08-27 03:55:00
10:15 PM,62.6,50.0,63,30.39,10.0,SSE,5.8,-,N/A,,Clear,150,2013-08-27 04:15:00
10:35 PM,62.6,50.0,63,30.40,10.0,SSE,5.8,-,N/A,,Clear,160,2013-08-27 04:35:00
10:55 PM,60.8,50.0,68,30.40,10.0,SSE,6.9,-,N/A,,Clear,160,2013-08-27 04:55:00
11:15 PM,60.8,50.0,68,30.40,10.0,SSE,6.9,-,N/A,,Clear,160,2013-08-27 05:15:00
11:35 PM,60.8,50.0,68,30.40,10.0,SSE,8.1,-,N/A,,Clear,150,2013-08-27 05:35:00
11:55 PM,59.0,50.0,72,30.40,10.0,SSE,8.1,-,N/A,,Clear,160,2013-08-27 05:55:00